Miscellaneous Local Product
Issued by NWS Hastings, NE

Home | Current Version | Previous Version | Text Only | Print | Product List | Glossary On
Versions: 1 2 3 4 5 6 7 8 9 10 11 12 13 14 15 16 17 18 19 20 21 22 23 24 25 26 27 28 29 30 31 32 33 34 35 36 37 38 39 40 41 42 43 44 45 46 47 48 49 50
000
AXUS43 KGID 300002
MISGRI

GID CWA HOURLY WEATHER ROUNDUP
NATIONAL WEATHER SERVICE HASTINGS NE
700 PM CDT FRI MAY 29 2015

NOTE: "FAIR" INDICATES FEW OR NO CLOUDS BELOW 12,000 FEET WITH NO
SIGNIFICANT WEATHER AND/OR OBSTRUCTIONS TO VISIBILITY.

...SOUTH CENTRAL NEBRASKA...

CITY           SKY/WX    TMP DP  RH WIND       PRES   REMARKS
GRAND ISLAND   CLOUDY    59  49  69 N25G35    30.07R
HASTINGS       PTSUNNY   61  52  72 N28G37    30.04R
KEARNEY        CLOUDY    59  48  67 N26G36    30.09R
ORD            CLOUDY    53  49  86 N26G33    30.11R
YORK           MOSUNNY   66  55  68 N23G31    29.98R
AURORA         PTSUNNY   63  53  70 N25G35    30.02R
LEXINGTON      CLOUDY    56  53  89 N26G33    30.10F
HOLDREGE       RAIN      57  53  86 N26G33    30.09R
HEBRON         PTSUNNY   77  55  45 N8        29.92R

...NEBRASKA PANHANDLE...

CITY           SKY/WX    TMP DP  RH WIND       PRES   REMARKS
CHADRON        CLOUDY    49  44  83 NE6       30.29S
ALLIANCE       CLOUDY    47  45  93 N17       30.25F
SCOTTSBLUFF    LGT RAIN  52  48  86 N14       30.27S
SIDNEY         CLOUDY    50  45  83 N18       30.26R

...WESTERN AND NORTH CENTRAL NEBRASKA...

CITY           SKY/WX    TMP DP  RH WIND       PRES   REMARKS
VALENTINE      CLOUDY    48  46  93 N13       30.24R
AINSWORTH      RAIN      48  47  98 N21G26    30.22R
ONEILL         LGT RAIN  51  50  96 N20G29    30.15R
BROKEN BOW     LGT RAIN  53  49  86 N28G36    30.15R
IMPERIAL       CLOUDY    56  49  77 N17G28    30.18R
NORTH PLATTE   CLOUDY    53  48  83 N25G37    30.15F
MCCOOK         CLOUDY    61  51  70 N25G35    30.12R

...EASTERN NEBRASKA...

CITY           SKY/WX    TMP DP  RH WIND       PRES   REMARKS
NORFOLK        LGT RAIN  56  53  90 N22G28    30.04R
SO SIOUX CITY  LGT RAIN  60  54  80 N24G32    29.97R
TEKAMAH        CLOUDY    69  62  78 N25       29.92R
COLUMBUS       CLOUDY    61  52  72 N22G33    30.02R
ALBION         CLOUDY    55  48  77 N22G33    30.06R
OMAHA EPPLEY   CLOUDY    77  61  57 S8        29.87S
OFFUTT AFB     PTSUNNY   77  61  59 S8        29.87F
MILLARD        TSTM      75  62  64 NW8G21    29.89R
LINCOLN        PTSUNNY   75  59  57 N23G31    29.92R
NEBRASKA CITY  PTSUNNY   74  57  55 SW7       29.90F
BEATRICE       CLOUDY    77  62  59 SE7       29.90F
FALLS CITY     PTSUNNY   74  66  76 S8        29.90F

...NORTHERN KANSAS...

CITY           SKY/WX    TMP DP  RH WIND       PRES   REMARKS
GOODLAND       MOSUNNY   62  53  72 NE17G25   30.14S
HILL CITY      LGT RAIN  59  55  87 N17G25    30.08R
NORTON         MOCLDY    57  54  88 N17G25    30.07R
PHILLIPSBURG   TSTM      61  61 100 N22G39    30.05R
SMITH CENTER   PTSUNNY   68  57  68 N24G31    29.98R
HAYS           MOSUNNY   79  54  41 W5        29.97S
RUSSELL        SUNNY     79  56  45 W3        29.94F
CONCORDIA      PTSUNNY   77  60  55 S5        29.91F
SALINA         CLOUDY    79  58  48 W3        29.92F
TOPEKA         PTSUNNY   72  66  81 S8        29.92F



USA.gov is the U.S. government's official web portal to all federal, state and local government web resources and services.